Decorah, IA

7:04 AM CDT on September 26, 2017 (GMT -0500)
Decorah Municipal

Weather History for KDEH - April, 2013

Change the Weather History Date:

Thursday, April 11, 2013

  Actual Average Record
Temperature  
Mean Temperature 36 °F -  
Max Temperature 39 °F 56 °F 83 °F (1968)
Min Temperature 33 °F 34 °F 16 °F (1973)
Degree Days  
Heating Degree Days 29    
Moisture  
Dew Point 35 °F    
Average Humidity 95    
Maximum Humidity 100    
Minimum Humidity 87    
Precipitation  
Precipitation 0.15 in - - ()
Sea Level Pressure  
Sea Level Pressure 29.63 in    
Wind  
Wind Speed 13 mph (East)    
Max Wind Speed 21 mph    
Max Gust Speed 31 mph    
Visibility 4 miles    
Events Rain , Snow    
Averages and records for this station are not official NWS values.
T = Trace of Precipitation, MM = Missing Value Source: NWS Daily Summary

Daily Weather History Graph

Daily Weather History Graph

Search for Another Location

Airport or City:

Trip Planner

Search our weather history database for the weather conditions in past years. The results will help you decide how hot, cold, wet, or windy it might be!

Date:

Astronomy

Apr. 11, 2013 Rise Set
Actual Time 6:31 AM CDT 7:45 PM CDT
Civil Twilight 6:01 AM CDT 8:15 PM CDT
Nautical Twilight 5:26 AM CDT 8:50 PM CDT
Astronomical Twilight 4:49 AM CDT 9:27 PM CDT
Moon 7:00 AM CDT (4/11) 9:23 PM CDT (4/11)
Length of Visible Light 14h 13m
Length of Day
13h 14m
New Moon, 2% of the Moon is Illuminated
Apr 11
New Moon
Apr 18
First Quarter
Apr 25
Full
May 2
Last Quarter
May 9
New

Hourly Weather History & Observations

Time (CDT) Temp. Windchill Dew Point Humidity Pressure Visibility Wind Dir Wind Speed Gust Speed Precip Events Conditions
12:15 AM 35.6 °F 26.6 °F 32.0 °F 87% 29.79 in 10.0 mi East 13.8 mph 23.0 mph N/A   Light Drizzle
12:35 AM 35.6 °F 25.9 °F 32.0 °F 87% 29.77 in 10.0 mi East 16.1 mph - N/A Rain Light Rain
12:55 AM 35.6 °F - 32.0 °F 87% 29.81 in 10.0 mi Calm Calm 16.1 mph N/A Rain Light Rain
1:15 AM 35.6 °F 26.2 °F 32.0 °F 87% 29.77 in 10.0 mi East 15.0 mph 21.9 mph N/A Rain Light Rain
1:35 AM 35.6 °F 26.2 °F 32.0 °F 87% 29.76 in 10.0 mi ENE 15.0 mph - N/A   Light Drizzle
1:55 AM 35.6 °F 26.6 °F 32.0 °F 87% 29.74 in 10.0 mi ENE 13.8 mph 19.6 mph N/A   Light Drizzle
2:15 AM 35.6 °F 25.5 °F 32.0 °F 87% 29.74 in 9.0 mi ENE 17.3 mph - N/A   Light Drizzle
2:35 AM 35.6 °F 26.2 °F 33.8 °F 93% 29.72 in 5.0 mi ENE 15.0 mph 21.9 mph N/A   Light Drizzle
2:55 AM 35.6 °F 26.2 °F 33.8 °F 93% 29.71 in 6.0 mi East 15.0 mph 23.0 mph N/A   Light Drizzle
3:15 AM 35.6 °F 25.2 °F 33.8 °F 93% 29.69 in 5.0 mi East 18.4 mph 24.2 mph N/A   Light Drizzle
3:35 AM 33.8 °F 22.5 °F 33.8 °F 100% 29.68 in 2.0 mi East 19.6 mph 25.3 mph N/A   Overcast
3:55 AM 33.8 °F 22.5 °F 33.8 °F 100% 29.66 in 2.0 mi ENE 19.6 mph 28.8 mph 0.01 in   Overcast
4:15 AM 33.8 °F 22.5 °F 33.8 °F 100% 29.65 in 3.0 mi East 19.6 mph 26.5 mph N/A   Overcast
4:35 AM 33.8 °F 22.2 °F 33.8 °F 100% 29.63 in 4.0 mi East 20.7 mph 31.1 mph N/A   Overcast
4:55 AM 33.8 °F 22.2 °F 33.8 °F 100% 29.63 in 2.0 mi East 20.7 mph 31.1 mph 0.01 in Snow Light Snow
5:15 AM 33.8 °F 23.5 °F 33.8 °F 100% 29.64 in 3.0 mi ESE 16.1 mph 29.9 mph N/A Snow Light Snow
5:35 AM 33.8 °F 27.7 °F 33.8 °F 100% 29.69 in 1.8 mi SSE 6.9 mph 13.8 mph N/A Rain Light Rain
5:55 AM 33.8 °F 28.6 °F 33.8 °F 100% 29.71 in 2.0 mi SSE 5.8 mph - 0.03 in Rain Light Rain
6:15 AM 33.8 °F 29.6 °F 33.8 °F 100% 29.71 in 1.8 mi East 4.6 mph - N/A Rain Light Rain
6:35 AM 33.8 °F 27.0 °F 33.8 °F 100% 29.68 in 2.0 mi ENE 8.1 mph - N/A Rain Light Rain
6:55 AM 33.8 °F 27.0 °F 33.8 °F 100% 29.65 in 3.0 mi NE 8.1 mph - 0.04 in Rain Light Rain
7:15 AM 33.8 °F 25.8 °F 33.8 °F 100% 29.66 in 4.0 mi ENE 10.4 mph - N/A Rain Light Rain
7:35 AM 33.8 °F 26.4 °F 33.8 °F 100% 29.67 in 10.0 mi East 9.2 mph - N/A   Overcast
7:55 AM 35.6 °F 28.6 °F 33.8 °F 93% 29.68 in 6.0 mi East 9.2 mph 15.0 mph N/A   Overcast
8:15 AM 35.6 °F 27.5 °F 33.8 °F 93% 29.67 in 4.0 mi East 11.5 mph - N/A   Light Drizzle
8:35 AM 35.6 °F 27.1 °F 33.8 °F 93% 29.66 in 5.0 mi East 12.7 mph - N/A   Light Drizzle
8:55 AM 35.6 °F 27.5 °F 33.8 °F 93% 29.67 in 3.0 mi East 11.5 mph - N/A Rain Light Rain
9:15 AM 35.6 °F 28.0 °F 33.8 °F 93% 29.66 in 2.5 mi East 10.4 mph - N/A   Light Drizzle
9:35 AM 35.6 °F 27.1 °F 35.6 °F 100% 29.66 in 2.0 mi East 12.7 mph - N/A Rain Light Rain
9:55 AM 35.6 °F 26.6 °F 35.6 °F 100% 29.65 in 3.0 mi ENE 13.8 mph - N/A   Light Drizzle
10:15 AM 35.6 °F 28.0 °F 35.6 °F 100% 29.65 in 4.0 mi East 10.4 mph 17.3 mph N/A Rain Light Rain
10:35 AM 35.6 °F 26.2 °F 35.6 °F 100% 29.66 in 6.0 mi East 15.0 mph 20.7 mph N/A   Light Drizzle
10:55 AM 35.6 °F 26.6 °F 35.6 °F 100% 29.65 in 5.0 mi East 13.8 mph - N/A Rain Light Rain
11:15 AM 35.6 °F 25.9 °F 35.6 °F 100% 29.66 in 9.0 mi East 16.1 mph - N/A   Light Drizzle
11:35 AM 37.4 °F 28.9 °F 35.6 °F 93% 29.66 in 9.0 mi East 13.8 mph 19.6 mph N/A   Light Drizzle
12:15 PM 37.4 °F 28.5 °F 35.6 °F 93% 29.64 in 4.0 mi East 15.0 mph - N/A   Light Drizzle
12:35 PM 37.4 °F 28.9 °F 35.6 °F 93% 29.61 in 2.0 mi East 13.8 mph 20.7 mph N/A Rain Light Rain
12:55 PM 37.4 °F 28.9 °F 37.4 °F 100% 29.60 in 2.0 mi East 13.8 mph - N/A Rain Light Rain
1:15 PM 37.4 °F 27.5 °F 35.6 °F 93% 29.60 in 8.0 mi East 18.4 mph 25.3 mph N/A Rain Light Rain
1:35 PM 37.4 °F 27.5 °F 35.6 °F 93% 29.58 in 7.0 mi East 18.4 mph 25.3 mph N/A Rain Light Rain
1:55 PM 37.4 °F 28.5 °F 35.6 °F 93% 29.61 in 5.0 mi East 15.0 mph - N/A   Light Drizzle
2:15 PM 37.4 °F 28.5 °F 37.4 °F 100% 29.59 in 5.0 mi East 15.0 mph 23.0 mph N/A   Light Drizzle
2:35 PM 39.2 °F 29.8 °F 37.4 °F 93% 29.60 in 4.0 mi East 18.4 mph 25.3 mph N/A Rain Light Rain
2:55 PM 39.2 °F 30.8 °F 37.4 °F 93% 29.58 in 3.0 mi East 15.0 mph - N/A Rain Light Rain
3:15 PM 39.2 °F 31.6 °F 37.4 °F 93% 29.57 in 4.0 mi East 12.7 mph 20.7 mph N/A   Light Drizzle
3:35 PM 39.2 °F 31.2 °F 37.4 °F 93% 29.58 in 8.0 mi East 13.8 mph 20.7 mph N/A   Light Drizzle
3:55 PM 39.2 °F 31.6 °F 37.4 °F 93% 29.59 in 6.0 mi East 12.7 mph 18.4 mph N/A   Light Drizzle
4:15 PM 39.2 °F 30.8 °F 37.4 °F 93% 29.59 in 4.0 mi ESE 15.0 mph 20.7 mph N/A   Light Drizzle
4:35 PM 39.2 °F 30.5 °F 37.4 °F 93% 29.58 in 1.0 mi East 16.1 mph - N/A Rain Light Rain
4:55 PM 39.2 °F 30.8 °F 37.4 °F 93% 29.58 in 1.5 mi East 15.0 mph - N/A   Light Drizzle
5:15 PM 39.2 °F 32.0 °F 37.4 °F 93% 29.59 in 1.8 mi East 11.5 mph 18.4 mph N/A   Light Drizzle
5:35 PM 39.2 °F 31.6 °F 37.4 °F 93% 29.58 in 2.0 mi East 12.7 mph - N/A   Light Drizzle
5:55 PM 39.2 °F 31.6 °F 37.4 °F 93% 29.57 in 1.5 mi East 12.7 mph - N/A   Light Drizzle
6:15 PM 39.2 °F 31.6 °F 37.4 °F 93% 29.55 in 2.5 mi ENE 12.7 mph - N/A   Light Drizzle
6:35 PM 39.2 °F 32.0 °F 37.4 °F 93% 29.54 in 4.0 mi East 11.5 mph 17.3 mph N/A   Light Drizzle
6:55 PM 39.2 °F 31.6 °F 37.4 °F 93% 29.54 in 3.0 mi ENE 12.7 mph - N/A   Light Drizzle
7:15 PM 39.2 °F 31.2 °F 37.4 °F 93% 29.55 in 3.0 mi East 13.8 mph 20.7 mph N/A Rain Light Rain
7:35 PM 37.4 °F 29.8 °F 37.4 °F 100% 29.54 in 4.0 mi East 11.5 mph - N/A Rain Light Rain
7:55 PM 37.4 °F 28.9 °F 37.4 °F 100% 29.55 in 8.0 mi East 13.8 mph 21.9 mph 0.01 in Rain Light Rain
8:15 PM 37.4 °F 29.8 °F 37.4 °F 100% 29.55 in 2.5 mi ENE 11.5 mph 17.3 mph N/A Rain Light Rain
8:35 PM 37.4 °F 32.1 °F 37.4 °F 100% 29.56 in 3.0 mi ENE 6.9 mph 15.0 mph N/A Rain Light Rain
8:55 PM 37.4 °F 30.8 °F 35.6 °F 93% 29.56 in 3.0 mi ENE 9.2 mph - 0.02 in Rain Light Rain
9:15 PM 35.6 °F 28.6 °F 35.6 °F 100% 29.56 in 5.0 mi ENE 9.2 mph - N/A Rain Light Rain
9:35 PM 35.6 °F 29.9 °F 35.6 °F 100% 29.56 in 4.0 mi NE 6.9 mph - N/A Rain Light Rain
9:55 PM 35.6 °F 29.2 °F 33.8 °F 93% 29.56 in 4.0 mi ENE 8.1 mph - 0.02 in   Light Drizzle
10:15 PM 35.6 °F 28.6 °F 33.8 °F 93% 29.57 in 4.0 mi ENE 9.2 mph - N/A Rain Light Rain
10:35 PM 35.6 °F 28.0 °F 33.8 °F 93% 29.57 in 2.0 mi ENE 10.4 mph - N/A   Light Drizzle
10:55 PM 33.8 °F 25.8 °F 33.8 °F 100% 29.57 in 2.0 mi ENE 10.4 mph - 0.01 in Rain Light Rain
11:15 PM 33.8 °F 26.4 °F 33.8 °F 100% 29.57 in 3.0 mi East 9.2 mph - N/A Rain Light Rain
11:35 PM 33.8 °F 25.8 °F 33.8 °F 100% 29.56 in 4.0 mi East 10.4 mph - N/A   Light Drizzle
11:55 PM 33.8 °F 25.8 °F 33.8 °F 100% 29.56 in 6.0 mi ENE 10.4 mph - N/A   Overcast